Theta_e
343 342 340 339 338 338 338 339 339 338 336 334 333 331 329 331 334 337 335 331 328 329 331 331 333 336 337 337 337 337 336 336 336 336 337 337 337 340 342 341 337 337 337
342 341 339 339 338 338 338 338 339 339 337 335 334 331 331 331 333 337 338 338 338 337 335 335 337 337 338 337 337 336 336 337 336 334 334 337 339 340 340 336 336 336 336
343 341 339 339 338 337 338 338 340 340 337 336 335 332 332 332 332 336 340 337 337 337 337 338 338 338 337 337 337 335 337 336 334 334 335 337 338 339 336 334 335 335 335
347 341 339 339 338 337 338 338 340 340 338 338 337 334 333 333 333 336 339 336 338 338 338 338 337 338 337 337 336 335 335 335 337 339 337 334 336 336 336 334 335 334 334
350 342 340 339 338 337 338 339 340 341 339 338 337 335 334 334 334 335 338 338 338 338 338 338 337 337 337 336 334 334 335 336 335 337 338 337 334 333 333 334 334 334 333
352 346 342 339 338 337 338 340 340 341 340 339 338 336 334 336 334 335 336 338 339 339 339 338 337 336 336 334 334 334 334 335 335 334 333 337 332 333 334 334 334 334 333
351 350 348 342 338 337 338 340 341 341 340 340 339 337 335 336 335 335 337 338 339 339 338 336 335 335 334 333 332 334 334 334 336 334 335 337 332 333 335 335 335 334 333
350 349 348 346 339 337 338 338 340 341 341 341 340 338 336 336 335 336 338 338 339 339 337 335 334 332 333 333 331 332 332 334 337 333 334 335 332 332 334 334 335 333 332
351 350 349 347 340 336 337 337 339 341 342 342 341 338 336 337 336 336 338 338 338 337 336 334 332 331 332 331 329 329 330 334 336 334 334 332 329 331 333 333 333 332 332
352 352 350 348 345 337 336 337 337 338 342 342 341 339 337 338 336 336 337 338 338 337 335 333 331 331 331 330 328 328 331 333 336 334 333 330 329 331 332 332 332 332 331
349 351 350 348 345 338 335 335 336 338 340 342 342 340 338 338 337 336 337 337 337 336 335 331 331 331 330 329 328 327 329 332 336 335 333 331 330 330 332 331 331 331 330
313 330 351 349 346 340 336 335 335 337 339 342 342 340 339 339 338 336 336 336 336 336 335 331 331 331 330 329 328 326 326 334 334 334 333 330 329 329 331 331 331 330 329
313 313 322 348 348 344 338 337 337 337 338 342 342 341 340 340 338 337 337 339 338 337 335 332 332 331 330 330 329 327 328 333 334 333 332 331 328 329 329 330 330 330 329
312 312 312 312 340 346 344 342 343 339 337 340 342 341 341 340 341 339 340 338 341 337 334 331 331 330 330 335 335 335 330 334 335 333 331 330 329 326 327 329 330 330 330
313 313 314 313 312 329 345 345 345 344 338 337 341 342 342 340 342 341 341 341 339 338 334 332 331 331 330 333 336 337 335 336 334 334 333 331 329 327 326 326 329 330 330
310 311 315 316 314 313 321 341 345 345 343 339 339 342 343 341 340 343 341 342 340 339 334 332 332 331 330 335 336 336 334 331 334 333 332 332 330 328 327 326 326 328 329
307 308 310 313 316 314 313 339 342 343 343 342 341 340 342 342 339 342 342 343 342 340 337 334 335 335 335 335 337 336 332 331 329 330 331 333 331 330 327 328 326 326 327
303 303 305 309 312 314 315 316 329 341 342 342 342 342 342 341 340 343 342 342 342 341 340 337 338 336 337 336 335 333 331 330 331 331 331 331 330 330 329 328 327 326 326
300 300 301 305 308 309 312 315 317 325 339 341 340 342 343 342 341 343 341 341 341 342 340 338 339 335 336 336 335 335 334 331 330 331 329 329 330 329 329 328 328 327 327
298 298 299 300 303 305 308 312 316 317 330 337 340 340 342 343 342 343 342 341 341 342 341 340 338 337 335 335 337 335 336 334 332 331 330 329 330 329 329 329 328 328 328
297 297 297 298 299 302 304 309 312 320 323 337 336 339 340 341 343 342 342 342 341 342 342 341 339 338 338 339 335 334 333 334 333 333 331 332 331 330 330 331 330 329 328
296 296 295 296 297 299 303 306 309 314 316 328 335 335 338 340 342 343 342 342 342 342 341 341 340 339 339 337 335 334 332 332 332 332 331 332 332 331 330 331 331 329 329
294 294 294 293 296 298 301 304 308 313 313 315 328 336 335 339 340 342 341 342 342 341 340 340 340 338 338 338 337 334 329 330 330 333 332 332 333 333 331 330 330 330 331
292 292 292 292 295 296 297 302 306 310 314 313 320 330 333 336 338 339 341 341 342 341 340 340 341 339 337 338 337 336 332 331 329 331 334 334 333 333 333 332 331 330 330
291 291 291 292 293 295 296 300 304 309 312 316 318 330 333 334 336 337 341 342 341 341 340 341 341 339 338 337 337 336 335 334 334 329 329 332 334 333 333 333 332 331 330
290 290 290 291 291 293 295 298 302 306 309 314 316 323 328 332 334 336 340 340 341 341 339 340 341 340 337 335 335 334 333 333 333 332 328 327 330 332 331 332 332 331 330
Wind_Speed
21 26 25 24 24 23 22 20 19 17 15 14 12 12 13 15 15 16 16 16 15 14 13 11 9 8 7 9 10 11 15 15 16 15 17 18 18 19 16 15 17 18 17
21 24 23 23 22 22 20 19 18 18 17 15 13 13 13 14 15 14 14 14 13 11 11 9 8 8 8 8 9 12 14 17 17 18 16 17 17 15 14 13 15 16 16
13 24 23 22 21 20 20 19 19 18 19 17 14 13 13 14 15 14 13 14 11 10 9 9 8 9 8 7 10 13 14 15 16 16 14 16 16 15 13 12 13 14 15
11 23 24 21 20 19 19 19 19 19 20 19 16 14 13 13 14 14 12 12 11 11 9 9 8 8 7 8 10 12 14 15 15 12 14 12 10 13 12 12 13 12 13
13 21 21 20 19 18 17 18 18 19 20 19 18 16 14 14 14 14 12 11 11 11 10 9 8 7 7 8 10 11 12 12 9 6 8 11 12 11 12 12 13 13 13
13 15 17 19 17 16 15 16 17 19 20 20 19 18 17 15 15 15 14 13 10 10 9 9 8 8 8 8 8 11 10 10 6 4 8 11 9 12 14 13 14 15 16
15 12 8 16 16 15 15 15 17 18 20 20 19 18 18 16 15 15 15 14 12 11 10 9 9 8 7 7 8 10 10 10 4 2 13 10 8 11 13 14 14 15 16
10 13 9 8 16 16 15 16 17 19 20 21 20 20 19 18 16 16 15 14 13 12 10 10 9 8 7 7 8 8 10 7 12 17 12 13 12 11 13 13 15 15 16
7 8 7 6 14 17 16 16 17 19 21 21 21 21 21 19 18 17 16 15 14 12 10 10 10 9 8 8 7 7 8 8 14 15 15 10 10 11 14 14 14 16 17
5 8 7 8 10 21 20 18 17 18 21 22 22 22 22 20 19 19 18 16 14 13 12 11 11 11 10 9 8 8 9 8 11 14 13 15 12 14 16 16 16 17 19
3 8 9 10 10 22 22 20 19 18 20 22 23 23 23 22 22 21 20 18 16 14 13 13 13 12 11 10 10 9 10 8 9 12 15 14 15 14 15 16 16 17 19
20 10 15 16 15 21 24 22 22 22 22 24 26 26 25 24 23 23 21 20 18 16 15 14 14 13 12 10 9 9 9 5 8 13 11 13 12 13 14 15 16 18 18
22 22 14 19 19 21 26 24 24 26 25 26 28 29 28 26 24 24 23 21 20 18 18 18 17 16 13 11 9 8 9 6 4 13 13 11 11 12 13 14 16 18 17
19 26 24 19 18 25 25 27 27 28 27 28 30 31 31 30 26 26 25 26 24 23 22 21 20 17 16 13 11 7 9 7 6 13 15 12 9 11 12 14 16 18 17
37 37 38 30 25 17 29 30 33 33 33 34 33 33 33 33 31 28 29 28 27 25 24 23 21 19 18 18 16 15 10 10 10 7 12 12 12 10 12 14 17 18 18
37 41 42 43 33 26 23 34 32 36 35 36 36 37 36 37 36 32 33 31 30 28 27 24 23 20 21 19 18 17 11 11 11 9 12 13 13 10 11 12 16 19 20
36 39 40 43 41 35 28 27 34 31 35 37 39 38 40 38 39 37 36 33 31 28 26 25 24 22 20 20 21 19 15 15 13 12 11 14 16 13 12 11 13 16 18
39 42 43 42 44 43 38 30 29 35 32 32 35 41 41 42 41 39 40 36 34 31 30 30 30 30 28 27 26 20 18 17 16 15 14 14 14 15 15 16 12 16 17
38 41 44 43 43 45 43 37 31 32 38 37 33 37 44 45 45 42 41 40 37 35 35 33 30 29 26 23 21 21 23 19 19 18 19 17 15 16 16 16 14 15 17
36 37 37 41 40 47 40 39 34 31 37 38 39 41 40 47 48 44 40 41 42 39 38 36 33 28 30 25 22 12 17 21 19 22 22 23 22 20 20 20 17 17 19
42 40 39 41 46 41 42 35 37 32 29 38 38 41 43 43 50 50 41 43 43 39 40 39 37 29 27 28 30 23 17 19 16 16 17 19 21 23 21 23 21 21 22
36 39 40 38 39 43 35 39 33 36 34 32 38 41 43 45 46 51 44 43 42 37 40 42 40 30 26 26 18 9 2 8 23 27 27 26 24 26 26 25 23 24 23
36 36 40 41 38 37 38 38 40 37 35 35 33 36 43 48 46 50 46 41 43 42 41 42 42 37 27 30 26 12 3 5 5 21 34 35 29 24 27 27 28 27 24
33 36 36 38 36 35 37 34 30 28 25 32 31 33 38 44 49 47 49 46 46 43 37 42 42 41 32 28 29 31 13 11 4 2 10 25 32 34 30 28 31 30 26
33 35 35 37 36 36 35 31 30 30 28 26 31 33 42 43 49 51 52 51 48 46 41 42 43 41 41 32 32 29 30 24 17 3 2 5 20 25 29 32 28 30 30
33 35 35 35 36 37 36 34 30 28 29 27 29 28 35 38 44 54 56 53 49 47 45 47 47 46 46 35 34 32 28 19 19 12 3 5 9 18 23 24 24 29 34
Wind_Direction
152 159 162 157 153 152 153 155 155 157 156 149 143 139 134 126 124 122 121 120 124 126 132 135 130 121 111 102 98 101 106 117 123 122 115 110 109 107 106 111 116 115 116
165 165 167 162 157 155 157 158 160 160 160 156 152 148 142 133 133 131 129 126 127 128 131 132 129 125 118 108 104 105 117 121 120 115 116 117 114 114 117 117 115 121 122
168 172 175 170 162 161 161 162 164 164 164 162 160 158 150 143 141 141 136 134 134 136 141 136 137 129 125 111 113 111 117 118 112 104 108 123 121 122 118 116 121 128 127
180 179 178 177 168 168 168 166 169 168 170 166 165 167 159 152 149 150 147 142 140 136 144 142 144 143 131 126 121 117 120 120 117 114 135 128 119 120 117 120 128 129 122
174 183 183 180 174 172 175 171 173 173 173 172 170 170 169 163 160 158 158 153 148 146 149 151 146 148 139 135 127 123 124 122 133 118 138 132 135 122 120 123 124 126 122
147 169 188 186 180 176 181 178 177 178 180 176 177 174 174 175 169 168 167 167 162 157 159 156 153 150 149 142 136 128 128 114 107 106 132 137 129 128 125 123 127 127 130
149 151 155 195 188 183 186 188 187 184 184 183 183 180 179 180 178 175 173 175 172 169 167 159 156 154 158 148 139 130 126 115 103 351 136 139 139 145 133 132 132 133 138
131 153 155 177 202 194 195 197 194 193 191 190 189 186 185 184 183 181 178 178 176 178 176 166 162 160 165 151 142 138 131 110 115 141 143 160 152 149 137 139 139 143 147
141 147 165 182 206 207 204 204 202 201 199 197 196 193 189 187 185 185 185 184 186 184 182 179 169 166 165 159 152 147 132 102 117 143 151 146 148 154 147 147 150 152 152
160 171 201 200 221 208 208 208 209 209 208 205 203 199 196 190 188 187 189 192 194 192 189 186 178 173 169 169 158 153 138 90 122 150 145 142 149 165 154 154 157 157 155
186 238 216 216 211 208 209 211 211 214 213 210 208 203 198 194 191 193 194 194 197 198 197 190 184 179 176 176 165 165 153 92 146 149 146 147 159 156 155 158 160 162 161
342 305 240 217 212 206 209 214 214 213 211 208 208 204 202 200 198 197 197 198 201 201 200 195 191 185 184 183 178 175 170 128 161 157 150 150 155 158 164 164 165 169 172
342 352 353 225 220 206 206 215 220 216 212 209 209 207 204 203 202 202 198 197 200 203 199 196 195 195 190 187 195 189 173 170 180 180 167 159 165 171 175 176 177 179 181
330 328 336 349 266 226 210 208 217 218 216 212 210 210 205 201 204 200 202 202 201 202 201 200 201 199 196 198 206 201 185 208 239 205 178 179 174 180 184 186 189 191 192
6 352 339 321 321 283 238 214 210 215 217 216 212 212 210 206 202 203 204 206 206 204 202 202 205 205 204 202 215 226 218 228 180 212 208 203 191 194 198 195 197 201 207
0 354 345 349 322 311 296 246 221 213 216 217 213 212 213 211 205 205 204 208 209 209 206 204 206 207 211 207 217 218 218 226 224 215 203 201 209 216 210 216 209 209 212
357 350 345 340 351 329 303 261 246 234 208 213 210 214 214 213 207 206 205 206 205 208 206 205 207 208 210 208 219 208 217 223 226 231 226 214 212 217 228 226 225 220 220
359 351 336 337 335 338 338 308 266 255 233 217 211 210 213 215 211 209 205 207 205 205 204 205 211 210 219 216 221 219 224 215 219 227 228 222 233 230 232 230 242 229 228
355 350 343 337 336 334 326 324 309 264 254 231 221 219 211 213 212 211 209 208 208 205 205 206 215 210 211 217 214 235 223 217 217 220 225 229 237 241 243 237 243 241 245
353 349 344 338 335 331 332 325 319 294 265 249 236 226 224 213 212 209 208 211 209 207 206 208 210 207 220 219 211 216 226 230 230 216 225 229 231 237 238 238 233 238 239
348 346 344 339 334 333 329 328 327 294 281 255 248 240 228 225 212 208 203 210 210 206 206 208 207 207 214 223 218 225 224 215 218 221 235 229 229 231 236 234 235 243 242
343 339 338 336 332 328 324 319 309 300 266 267 251 244 245 230 223 207 199 202 203 202 205 206 205 199 201 201 199 186 186 239 231 233 236 238 238 227 230 235 233 239 234
344 339 334 332 328 326 325 325 325 324 277 256 255 248 240 237 225 214 200 199 202 204 204 204 205 201 197 203 204 177 150 213 188 229 235 235 233 231 232 234 240 238 236
342 337 334 333 326 327 329 325 320 308 302 266 251 246 245 243 230 219 203 199 201 201 202 202 203 203 195 194 196 206 193 165 185 197 233 233 229 233 236 233 235 237 236
344 342 335 330 327 330 333 326 320 311 312 313 275 250 242 243 238 226 211 202 202 198 198 198 202 202 201 196 199 202 215 216 223 168 206 255 228 226 234 239 235 237 233
347 345 341 336 331 332 333 330 327 320 316 313 298 270 249 247 244 233 214 203 199 197 196 199 205 206 208 206 205 210 211 205 214 212 184 196 213 225 229 242 242 243 241